Breckenridge, MN

1:52 PM CST on February 24, 2017 (GMT -0600)
Stern

Weather History for KBWP - October, 2012

Change the Weather History Date:

Tuesday, October 16, 2012

  Actual Average (KFFM) Record (KFFM)
Temperature  
Mean Temperature 60 °F -  
Max Temperature 71 °F 52 °F 79 °F (1953)
Min Temperature 50 °F 32 °F 20 °F (1952)
Degree Days  
Heating Degree Days 4    
Growing Degree Days 10 (Base 50)    
Moisture  
Dew Point 42 °F    
Average Humidity 52    
Maximum Humidity 72    
Minimum Humidity 33    
Precipitation  
Precipitation 0.00 in - - ()
Sea Level Pressure  
Sea Level Pressure 29.46 in    
Wind  
Wind Speed 7 mph (SW)    
Max Wind Speed 14 mph    
Max Gust Speed -    
Visibility 10 miles    
Events      
Averages and records for this station are not official NWS values.
T = Trace of Precipitation, MM = Missing Value Source: NWS Daily Summary

Daily Weather History Graph

Daily Weather History Graph

Search for Another Location

Airport or City:

Trip Planner

Search our weather history database for the weather conditions in past years. The results will help you decide how hot, cold, wet, or windy it might be!

Date:

Astronomy

Oct. 16, 2012 Rise Set
Actual Time 7:45 AM CDT 6:37 PM CDT
Civil Twilight 7:15 AM CDT 7:07 PM CDT
Nautical Twilight 6:40 AM CDT 7:42 PM CDT
Astronomical Twilight 6:05 AM CDT 8:17 PM CDT
Moon 9:17 AM CDT (10/16) 7:14 PM CDT (10/16)
Length of Visible Light 11h 52m
Length of Day
10h 51m
New Moon, 2% of the Moon is Illuminated
Oct 16
New Moon
Oct 21
First Quarter
Oct 29
Full
Nov 6
Last Quarter
Nov 13
New

Hourly Weather History & Observations

Time (CDT) Temp. Dew Point Humidity Pressure Visibility Wind Dir Wind Speed Gust Speed Precip Events Conditions
12:15 AM 59.0 °F 35.6 °F 42% 29.57 in 10.0 mi SSW 10.4 mph - N/A   Mostly Cloudy
12:35 AM 59.0 °F 35.6 °F 42% 29.57 in 10.0 mi SSW 10.4 mph - N/A   Overcast
12:55 AM 59.0 °F 35.6 °F 42% 29.57 in 10.0 mi SSW 10.4 mph - N/A   Overcast
1:15 AM 60.8 °F 37.4 °F 42% 29.56 in 10.0 mi WSW 9.2 mph - N/A   Overcast
1:35 AM 60.8 °F 37.4 °F 42% 29.55 in 10.0 mi West 8.1 mph - N/A   Overcast
1:55 AM 62.6 °F 37.4 °F 39% 29.56 in 10.0 mi West 12.7 mph - N/A   Overcast
2:15 AM 60.8 °F 41.0 °F 48% 29.57 in 10.0 mi WSW 13.8 mph - N/A   Overcast
2:35 AM 60.8 °F 42.8 °F 52% 29.56 in 10.0 mi West 11.5 mph - N/A   Overcast
2:55 AM 60.8 °F 42.8 °F 52% 29.56 in 10.0 mi West 11.5 mph - N/A   Mostly Cloudy
3:15 AM 60.8 °F 42.8 °F 52% 29.56 in 10.0 mi WNW 11.5 mph - N/A   Scattered Clouds
3:35 AM 59.0 °F 42.8 °F 55% 29.56 in 10.0 mi WNW 10.4 mph - N/A   Mostly Cloudy
3:55 AM 59.0 °F 42.8 °F 55% 29.55 in 10.0 mi NW 8.1 mph - N/A   Scattered Clouds
4:15 AM 57.2 °F 42.8 °F 59% 29.56 in 10.0 mi WNW 6.9 mph - N/A   Clear
4:35 AM 55.4 °F 42.8 °F 63% 29.55 in 10.0 mi WNW 6.9 mph - N/A   Clear
4:55 AM 53.6 °F 42.8 °F 67% 29.55 in 10.0 mi WNW 5.8 mph - N/A   Clear
5:15 AM 51.8 °F 42.8 °F 71% 29.55 in 10.0 mi NNW 5.8 mph - N/A   Clear
5:35 AM 53.6 °F 42.8 °F 67% 29.54 in 10.0 mi NW 3.5 mph - N/A   Clear
5:55 AM 55.4 °F 44.6 °F 67% 29.55 in 10.0 mi Calm Calm - N/A   Clear
6:15 AM 53.6 °F 42.8 °F 67% 29.54 in 10.0 mi South 6.9 mph - N/A   Scattered Clouds
6:35 AM 53.6 °F 42.8 °F 67% 29.54 in 10.0 mi Calm Calm - N/A   Mostly Cloudy
6:55 AM 51.8 °F 42.8 °F 71% 29.53 in 10.0 mi SW 3.5 mph - N/A   Overcast
7:15 AM 51.8 °F 42.8 °F 71% 29.53 in 10.0 mi Calm Calm - N/A   Overcast
7:55 AM 53.6 °F 44.6 °F 72% 29.54 in 10.0 mi SW 8.1 mph - N/A   Mostly Cloudy
8:15 AM 53.6 °F 44.6 °F 72% 29.54 in 10.0 mi SW 3.5 mph - N/A   Mostly Cloudy
8:35 AM 53.6 °F 42.8 °F 67% 29.55 in 10.0 mi West 3.5 mph - N/A   Scattered Clouds
8:55 AM 50.0 °F 41.0 °F 71% 29.55 in 10.0 mi WSW 5.8 mph - N/A   Clear
9:15 AM 51.8 °F 42.8 °F 71% 29.54 in 10.0 mi SW 4.6 mph - N/A   Clear
9:35 AM 57.2 °F 44.6 °F 63% 29.53 in 10.0 mi WSW 6.9 mph - N/A   Clear
9:55 AM 59.0 °F 46.4 °F 63% 29.53 in 10.0 mi West 6.9 mph - N/A   Clear
10:15 AM 59.0 °F 46.4 °F 63% 29.53 in 10.0 mi West 6.9 mph - N/A   Clear
10:35 AM 59.0 °F 46.4 °F 63% 29.52 in 10.0 mi West 4.6 mph - N/A   Clear
10:55 AM 60.8 °F 46.4 °F 59% 29.51 in 10.0 mi Calm Calm - N/A   Clear
11:15 AM 60.8 °F 46.4 °F 59% 29.51 in 10.0 mi Calm Calm - N/A   Clear
11:35 AM 62.6 °F 46.4 °F 55% 29.50 in 10.0 mi West 3.5 mph - N/A   Clear
11:55 AM 64.4 °F 44.6 °F 49% 29.49 in 10.0 mi West 3.5 mph - N/A   Clear
12:15 PM 64.4 °F 46.4 °F 52% 29.49 in 10.0 mi WSW 4.6 mph - N/A   Clear
12:35 PM 66.2 °F 44.6 °F 46% 29.48 in 10.0 mi SW 5.8 mph - N/A   Clear
12:55 PM 68.0 °F 44.6 °F 43% 29.47 in 10.0 mi SW 8.1 mph - N/A   Clear
1:15 PM 69.8 °F 44.6 °F 40% 29.46 in 10.0 mi SSW 5.8 mph - N/A   Clear
1:35 PM 69.8 °F 44.6 °F 40% 29.44 in 10.0 mi SSW 8.1 mph - N/A   Clear
1:55 PM 69.8 °F 44.6 °F 40% 29.44 in 10.0 mi WSW 6.9 mph - N/A   Clear
2:15 PM 69.8 °F 42.8 °F 38% 29.42 in 10.0 mi SSW 4.6 mph - N/A   Clear
2:35 PM 69.8 °F 42.8 °F 38% 29.43 in 10.0 mi WSW 6.9 mph - N/A   Clear
2:55 PM 69.8 °F 42.8 °F 38% 29.42 in 10.0 mi WSW 6.9 mph - N/A   Clear
3:15 PM 69.8 °F 42.8 °F 38% 29.40 in 10.0 mi SSW 8.1 mph - N/A   Clear
3:35 PM 69.8 °F 41.0 °F 35% 29.39 in 10.0 mi West 4.6 mph - N/A   Clear
3:55 PM 69.8 °F 41.0 °F 35% 29.38 in 10.0 mi WSW 4.6 mph - N/A   Clear
4:15 PM 69.8 °F 41.0 °F 35% 29.38 in 10.0 mi West 3.5 mph - N/A   Clear
4:35 PM 71.6 °F 41.0 °F 33% 29.38 in 10.0 mi WNW 6.9 mph - N/A   Clear
4:55 PM 69.8 °F 41.0 °F 35% 29.38 in 10.0 mi West 6.9 mph - N/A   Clear
5:15 PM 69.8 °F 41.0 °F 35% 29.38 in 10.0 mi WSW 5.8 mph - N/A   Clear
5:35 PM 68.0 °F 41.0 °F 37% 29.37 in 10.0 mi SSW 3.5 mph - N/A   Clear
5:55 PM 66.2 °F 41.0 °F 40% 29.37 in 10.0 mi Calm Calm - N/A   Clear
6:15 PM 66.2 °F 41.0 °F 40% 29.36 in 10.0 mi Calm Calm - N/A   Clear
6:35 PM 64.4 °F 41.0 °F 42% 29.36 in 10.0 mi SE 3.5 mph - N/A   Clear
6:55 PM 62.6 °F 41.0 °F 45% 29.35 in 10.0 mi SE 4.6 mph - N/A   Clear
7:15 PM 62.6 °F 41.0 °F 45% 29.35 in 10.0 mi SE 4.6 mph - N/A   Clear
7:35 PM 59.0 °F 41.0 °F 51% 29.35 in 10.0 mi SE 5.8 mph - N/A   Clear
7:55 PM 60.8 °F 41.0 °F 48% 29.34 in 10.0 mi SE 6.9 mph - N/A   Clear
8:15 PM 60.8 °F 41.0 °F 48% 29.33 in 10.0 mi SE 6.9 mph - N/A   Clear
8:35 PM 60.8 °F 41.0 °F 48% 29.32 in 10.0 mi SE 6.9 mph - N/A   Clear
8:55 PM 60.8 °F 41.0 °F 48% 29.30 in 10.0 mi ESE 6.9 mph - N/A   Clear
9:15 PM 59.0 °F 41.0 °F 51% 29.30 in 10.0 mi SE 4.6 mph - N/A   Clear
9:35 PM 59.0 °F 41.0 °F 51% 29.31 in 10.0 mi SE 4.6 mph - N/A   Clear
9:55 PM 55.4 °F 39.2 °F 54% 29.32 in 10.0 mi SSE 5.8 mph - N/A   Clear
10:35 PM 55.4 °F 39.2 °F 54% 29.30 in 10.0 mi SE 6.9 mph - N/A   Clear
10:55 PM 53.6 °F 39.2 °F 58% 29.30 in 10.0 mi SSE 6.9 mph - N/A   Clear
11:15 PM 53.6 °F 37.4 °F 54% 29.29 in 10.0 mi SE 6.9 mph - N/A   Clear
11:35 PM 53.6 °F 39.2 °F 58% 29.29 in 10.0 mi SSE 5.8 mph - N/A   Clear
11:55 PM 53.6 °F 39.2 °F 58% 29.29 in 10.0 mi SE 5.8 mph - N/A   Clear